Regional Weather Roundup
Issued by NWS

Home | Current Version | Previous Version | Graphics & Text | Print | Product List | Glossary On
Versions: 1 2 3 4 5 6 7 8 9 10 11 12 13 14 15 16 17 18 19 20 21 22 23 24 25 26 27 28 29 30 31 32 33 34 35 36 37 38 39 40 41 42 43 44 45 46 47 48 49 50
317
ASUS43 KLMK 221410
RWRKY
KENTUCKY REGIONAL WEATHER ROUNDUP
NATIONAL WEATHER SERVICE LOUISVILLE KY
900 AM EST SUN JAN 22 2017

NOTE "FAIR" INDICATES FEW OR NO CLOUDS BELOW 12,000 FEET
WITH NO SIGNIFICANT WEATHER AND/OR OBSTRUCTIONS TO VISIBILITY.

KYZ001>023-026-027-061>063-070>075-221500-
WESTERN AND SOUTH CENTRAL KENTUCKY

CITY           SKY/WX    TMP DP  RH WIND       PRES   REMARKS
PADUCAH        CLOUDY    53  49  86 E8        29.43F
HENDERSON      CLOUDY    52  46  82 NE6       29.49S
OWENSBORO      MOCLDY    52  48  86 NE7       29.50F
HOPKINSVILLE   NOT AVBL
BOWLING GREEN  CLOUDY    53  50  89 CALM      29.49S
GLASGOW        CLOUDY    51  51 100 NE3       29.49S
$$

KYZ024-025-028>034-038-045-046-053-221500-
NORTH CENTRAL KENTUCKY

CITY           SKY/WX    TMP DP  RH WIND       PRES   REMARKS
LOUISVILLE/SDF CLOUDY    50  47  89 N6        29.52F
LOUISVILLE/LOU CLOUDY    50  47  89 NE3       29.53F
FORT KNOX      NOT AVBL
$$

KYZ035>037-039>044-047>052-055>060-089>105-221500-
NORTHEAST KENTUCKY

CITY           SKY/WX    TMP DP  RH WIND       PRES   REMARKS
LEXINGTON      CLOUDY    51  48  89 NE9       29.53F
COVINGTON      CLOUDY    51  49  92 E9        29.56F
FRANKFORT      CLOUDY    51  47  86 NE5       29.53S
$$

KYZ054-064>069-076>088-106>120-221500-
SOUTHEAST KENTUCKY

CITY           SKY/WX    TMP DP  RH WIND       PRES   REMARKS
JACKSON        CLOUDY    50  48  93 VRB3      29.52F
LONDON         LGT RAIN  48  45  89 N6        29.52R
SOMERSET       CLOUDY    46  46 100 CALM      29.51F
MIDDLESBORO    RAIN      47  47 100 CALM      29.54R
MONTICELLO     CLOUDY    51  49  92 N10       29.51F
$$





USA.gov is the U.S. government's official web portal to all federal, state and local government web resources and services.